Location: Newark
(40.2094°N, 3.5722°W)
Time: 02:25:21
(UTC+00:00)

Envisat - Visible Passes

Search period start: 16 October 2019 00:00
Search period end: 26 October 2019 00:00
Orbit: 764 x 766 km, 98.1° (Epoch: 15 October)

Date Brightness Start Highest point End Pass type
(mag) Time Alt. Az. Time Alt. Az. Time Alt. Az.
16 Oct 3.0 18:18:21 10° SSE 18:23:25 87° ENE 18:28:33 10° NNW visible
17 Oct 5.4 19:21:53 10° SSW 19:25:55 24° W 19:29:57 10° NW visible
18 Oct 6.4 05:53:03 10° ENE 05:55:38 14° E 05:58:11 10° ESE visible
18 Oct 3.8 18:44:01 10° S 18:48:56 53° W 18:53:56 10° NNW visible
19 Oct 3.0 18:07:09 10° SSE 18:12:11 69° ENE 18:17:14 10° N visible
19 Oct 6.1 19:49:21 10° WSW 19:51:40 13° W 19:54:02 10° WNW visible
20 Oct 5.0 19:10:10 10° SSW 19:14:34 30° W 19:19:01 10° NW visible
21 Oct 6.7 05:43:16 10° ENE 05:44:14 10° E 05:45:10 10° E visible
21 Oct 3.4 18:32:37 10° S 18:37:40 68° WSW 18:42:44 10° NNW visible
22 Oct 3.1 17:56:02 10° SSE 18:00:57 54° ENE 18:05:55 10° N visible
22 Oct 5.8 19:37:03 10° SW 19:40:18 17° W 19:43:33 10° NW visible
23 Oct 6.0 06:06:23 10° NE 06:10:01 20° E 06:13:39 10° SE visible
23 Oct 4.5 18:58:33 10° SSW 19:03:15 38° W 19:07:58 10° NNW visible
24 Oct 3.0 18:21:19 10° SSE 18:26:24 86° WSW 18:31:31 10° NNW visible
25 Oct 3.4 17:44:59 10° SE 17:49:45 43° ENE 17:54:32 10° N visible
25 Oct 5.5 19:25:05 10° SW 19:28:55 21° W 19:32:47 10° NW visible
